Location: Elma
(49.8670°N, 95.9170°W)
Time: 01:35:42
(UTC-05:00)

ISS - Pass Details

Date: 01 April 2019
Orbit: 408 x 410 km, 51.6° (Epoch: 25 April)

Event Time Altitude Azimuth Distance (km) Brightness Sun altitude
Rises 22:30:50 0° 287° (WNW) 2,338 1.1 -23.4°
Reaches altitude 10° 22:33:01 10° 279° (W) 1,474 -0.2 -23.7°
Enters shadow 22:34:45 25° 258° (WSW) 880 -1.8 -23.9°
